KD2VWU Weather Reports


Display with metric or nautical units.
time (UTC)temp
F
wind
direction
speed
MPH
gust
MPH
rain 1hr
in
rain 24hr
in
rain mn
in
humidity
%
barometer
mb
20260902072919 62 36 0.0 0.0 0.00 0.00 0.00 99 1016.3
20260902072414 62 61 0.0 0.0 0.00 0.00 0.00 99 1015.9
20260902071911 62 61 0.0 0.0 0.00 0.00 0.00 99 1016.1
20260902071410 62 70 0.0 0.0 0.00 0.00 0.00 99 1015.9
20260902070907 62 73 0.0 0.0 0.00 0.00 0.00 99 1015.8
20260902070401 62 73 0.0 0.0 0.00 0.00 0.00 99 1015.8
20260902065900 62 75 0.0 0.0 0.00 0.00 0.00 99 1016.0
20260902065350 62 61 0.0 0.0 0.00 0.00 0.00 99 1015.9
20260902064845 62 63 0.0 0.0 0.00 0.00 0.00 99 1016.0
20260902064341 62 63 0.0 0.0 0.00 0.00 0.00 99 1016.2
20260902063837 62 71 0.0 0.0 0.00 0.00 0.00 99 1016.2
20260902063336 62 71 0.0 0.0 0.00 0.00 0.00 99 1015.9
20260902062830 62 72 0.0 0.0 0.00 0.00 0.00 99 1016.0
20260902062325 62 72 0.0 0.0 0.00 0.00 0.00 99 1016.1
20260902061825 0 0.0 0.0 0.00 0.00 0.00 1016.1
20260902061320 0 0.0 0.0 0.00 0.00 0.00 1016.1
20260902060817 62 66 0.0 0.0 0.00 0.00 0.00 99 1016.4
20260902060312 62 66 0.0 0.0 0.00 0.00 0.00 99 1016.2
20260902055808 62 58 0.0 0.0 0.00 0.00 0.00 99 1016.1
20260902055307 62 63 0.0 0.0 0.00 0.00 0.00 99 1016.2
20260902054759 62 63 0.0 0.0 0.00 0.00 0.00 99 1016.1
20260902054254 62 71 0.0 0.0 0.00 0.00 0.00 99 1016.2
20260902053750 62 63 0.0 0.0 0.00 0.00 0.00 99 1016.4
20260902053249 62 62 0.0 0.0 0.00 0.00 0.00 99 1016.4
20260902052748 62 62 0.0 0.0 0.00 0.00 0.00 99 1016.3
20260902052244 0 0.0 0.0 0.00 0.00 0.00 1016.2
20260902051743 62 98 0.0 0.0 0.00 0.00 0.00 99 1016.1
20260902051238 62 98 0.0 0.0 0.00 0.00 0.00 99 1016.1
20260902050733 62 98 0.0 0.0 0.00 0.00 0.00 99 1016.1
20260902050229 62 69 0.0 0.0 0.00 0.00 0.00 99 1016.0
20260902045728 62 76 0.0 0.0 0.00 0.00 0.00 99 1016.1
20260902045225 62 76 0.0 0.0 0.00 0.00 0.00 99 1016.0
20260902044720 62 76 0.0 0.0 0.00 0.00 0.00 99 1016.1
20260902044215 0 0.0 0.0 0.00 0.00 0.00 1016.3
20260902043715 62 71 0.0 0.0 0.00 0.00 0.00 99 1015.9
20260902043211 62 71 0.0 0.0 0.00 0.00 0.00 99 1016.0
20260902042710 62 69 0.0 0.0 0.00 0.00 0.00 99 1016.4
20260902042205 62 69 0.0 0.0 0.00 0.00 0.00 99 1016.0
20260902041700 0 0.0 0.0 0.00 0.00 0.00 1016.2
20260902041154 62 69 0.0 0.0 0.00 0.00 0.00 99 1015.9
20260902040649 62 69 0.0 0.0 0.00 0.00 0.00 99 1016.0
20260902040144 62 65 0.0 0.0 0.00 0.00 0.00 99 1015.8
20260902035642 62 52 0.0 1.0 0.00 0.80 0.80 99 1015.7
20260902035138 62 66 0.0 0.0 0.00 0.80 0.80 99 1015.6
20260902034637 0 0.0 0.0 0.00 0.00 0.00 1015.8
20260902034137 62 73 0.0 0.0 0.00 0.80 0.80 99 1015.5
20260902033636 62 73 0.0 0.0 0.00 0.80 0.80 99 1015.5
20260902033131 62 69 0.0 0.0 0.00 0.80 0.80 99 1015.6
20260902032629 62 69 0.0 0.0 0.00 0.80 0.80 99 1015.2
20260902032124 62 70 0.0 0.0 0.00 0.80 0.80 99 1015.1
20260902031619 62 77 0.0 1.0 0.00 0.80 0.80 99 1015.0
20260902031115 63 73 0.0 0.0 0.00 0.80 0.80 99 1015.2
20260902030610 62 53 0.0 0.0 0.00 0.80 0.80 99 1015.2
20260902030109 63 55 0.0 0.0 0.00 0.80 0.80 99 1015.2
20260902025603 63 69 0.0 0.0 0.00 0.80 0.80 99 1015.0
20260902025059 63 65 0.0 0.0 0.00 0.80 0.80 99 1015.0
20260902024554 63 64 0.0 0.0 0.00 0.80 0.80 99 1015.3
20260902024054 63 69 0.0 0.0 0.00 0.80 0.80 99 1015.0
20260902023550 63 63 0.0 0.0 0.00 0.80 0.80 99 1014.8
20260902023044 63 62 0.0 0.0 0.00 0.80 0.80 99 1014.3
20260902022539 63 63 0.0 0.0 0.00 0.80 0.80 99 1014.7
20260902022035 63 63 0.0 0.0 0.00 0.80 0.80 99 1014.8
20260902021531 63 69 0.0 0.0 0.00 0.80 0.80 99 1014.9
20260902021030 63 64 0.0 0.0 0.00 0.80 0.80 99 1014.8
20260902020526 63 69 0.0 0.0 0.00 0.80 0.80 99 1014.9
20260902020022 63 62 0.0 0.0 0.00 0.80 0.80 99 1014.7
20260902015518 63 70 0.0 0.0 0.00 0.80 0.80 99 1014.8
20260902015013 63 64 0.0 0.0 0.00 0.80 0.80 99 1014.4
20260902014509 63 64 0.0 0.0 0.00 0.80 0.80 99 1014.7
20260902014005 63 76 0.0 0.0 0.00 0.80 0.80 99 1014.7
20260902013459 63 75 0.0 0.0 0.00 0.80 0.80 99 1014.4
20260902012954 63 78 0.0 0.0 0.00 0.80 0.80 99 1014.2
20260902012450 64 66 0.0 0.0 0.00 0.80 0.80 99 1014.2
20260902011945 64 66 0.0 0.0 0.00 0.80 0.80 99 1014.1
20260902011440 64 74 0.0 0.0 0.00 0.80 0.80 99 1014.1
20260902010940 64 66 0.0 0.0 0.00 0.80 0.80 99 1013.9
20260902010435 65 72 0.0 0.0 0.00 0.80 0.80 99 1013.9
20260902005934 65 66 0.0 0.0 0.00 0.80 0.80 99 1013.8
20260902005433 65 65 0.0 0.0 0.00 0.80 0.80 99 1013.6
20260902004930 65 69 0.0 0.0 0.00 0.80 0.80 99 1013.8
20260902004429 65 65 0.0 0.0 0.00 0.80 0.80 99 1014.1
20260902003924 66 82 0.0 0.0 0.00 0.80 0.80 99 1013.9
20260902003419 66 75 0.0 0.0 0.00 0.80 0.80 99 1013.6
20260902002914 66 57 0.0 0.0 0.00 0.80 0.80 99 1013.7
20260902002409 66 66 0.0 0.0 0.00 0.80 0.80 99 1013.3
20260902001903 66 70 0.0 0.0 0.00 0.80 0.80 99 1013.4
20260902001358 67 77 1.0 1.0 0.00 0.80 0.80 99 1013.5
20260902000853 67 66 0.0 0.0 0.00 0.80 0.80 99 1013.3
20260902000354 68 51 0.0 0.0 0.00 0.80 0.80 99 1013.2
20260901235848 68 75 0.0 1.0 0.05 0.80 0.80 99 1013.2
20260901235343 68 78 0.0 0.0 0.12 0.80 0.80 99 1013.0
20260901234838 68 74 0.0 0.0 0.19 0.79 0.79 99 1013.1
20260901234332 69 84 0.0 0.0 0.12 0.78 0.78 99 1013.1
20260901233827 69 89 0.0 0.0 0.00 0.76 0.76 99 1012.9
20260901233323 70 73 0.0 0.0 0.00 0.76 0.76 99 1012.8
20260901232819 70 68 0.0 0.0 0.00 0.76 0.76 99 1012.7
20260901232313 71 65 1.0 1.0 0.00 0.76 0.76 99 1012.8
20260901231809 72 92 1.0 1.0 0.00 0.76 0.76 99 1012.5
20260901231306 73 106 1.0 1.0 0.00 0.76 0.76 99 1012.0
20260901230802 73 56 0.0 1.0 0.00 0.76 0.76 99 1012.3
20260901230301 73 2 0.0 1.0 0.00 0.76 0.76 99 1012.1
20260901225756 74 66 0.0 0.0 0.00 0.76 0.76 99 1012.1
20260901225250 74 154 0.0 0.0 0.00 0.76 0.76 99 1012.0
20260901224746 74 8 0.0 1.0 0.00 0.76 0.76 99 1012.1
20260901224237 74 80 0.0 0.0 0.00 0.76 0.76 99 1012.0
20260901223732 75 62 0.0 0.0 0.00 0.76 0.76 99 1011.9
20260901223227 75 61 0.0 0.0 0.00 0.76 0.76 99 1011.6
20260901222723 75 62 0.0 0.0 0.00 0.76 0.76 99 1011.7
20260901222219 75 64 0.0 0.0 0.00 0.76 0.76 99 1011.5
20260901221714 75 44 0.0 0.0 0.00 0.76 0.76 99 1011.6
20260901221210 75 83 0.0 0.0 0.00 0.76 0.76 98 1011.7
20260901220709 75 119 0.0 0.0 0.00 0.76 0.76 98 1011.5
20260901220209 75 91 0.0 0.0 0.00 0.76 0.76 98 1011.6
20260901215707 76 103 0.0 1.0 0.00 0.76 0.76 97 1011.8
20260901215202 76 13 0.0 0.0 0.00 0.76 0.76 97 1011.5
20260901214700 76 64 0.0 0.0 0.00 0.76 0.76 97 1011.5
20260901214154 76 309 0.0 0.0 0.00 0.76 0.76 97 1011.6
20260901213649 76 95 0.0 0.0 0.00 0.76 0.76 96 1011.5
20260901213144 76 60 0.0 0.0 0.00 0.76 0.76 96 1011.4
20260901212643 77 82 0.0 0.0 0.00 0.76 0.76 96 1011.2
20260901212140 77 34 0.0 0.0 0.00 0.76 0.76 94 1011.6
20260901211634 77 77 0.0 0.0 0.00 0.76 0.76 94 1011.4
20260901211131 77 75 0.0 0.0 0.00 0.76 0.76 92 1011.5
20260901210626 77 53 0.0 0.0 0.00 0.76 0.76 93 1011.5
20260901210122 77 68 0.0 0.0 0.00 0.76 0.76 95 1011.5
20260901205618 77 81 0.0 0.0 0.00 0.76 0.76 95 1011.5
20260901205117 77 76 0.0 0.0 0.00 0.76 0.76 94 1011.4
20260901204613 77 110 0.0 1.0 0.00 0.76 0.76 95 1011.5
20260901204108 77 78 0.0 0.0 0.00 0.76 0.76 93 1011.6
20260901203607 77 82 0.0 1.0 0.00 0.76 0.76 92 1011.6
20260901203102 77 80 0.0 0.0 0.00 0.76 0.76 91 1011.5
20260901202602 78 95 0.0 0.0 0.00 0.76 0.76 91 1011.5
20260901202059 78 31 0.0 0.0 0.00 0.76 0.76 91 1011.2
20260901201554 78 76 0.0 0.0 0.00 0.76 0.76 92 1011.3
20260901201053 78 92 0.0 0.0 0.00 0.76 0.76 91 1011.6
20260901200552 78 94 1.0 1.0 0.00 0.76 0.76 89 1011.3
20260901200047 78 52 0.0 0.0 0.00 0.76 0.76 91 1011.5
20260901195540 77 248 1.0 1.0 0.00 0.76 0.76 90 1011.4
20260901195040 77 167 0.0 1.0 0.00 0.76 0.76 91 1011.6
20260901194535 77 46 0.0 0.0 0.00 0.76 0.76 91 1011.5
20260901194030 77 321 0.0 1.0 0.00 0.76 0.76 93 1011.4
20260901193530 78 55 0.0 0.0 0.00 0.76 0.76 96 1011.6
20260901193025 77 55 0.0 0.0 0.00 0.76 0.76 96 1011.6
20260901192520 75 80 0.0 0.0 0.00 0.76 0.76 97 1011.6
20260901192016 75 16 0.0 0.0 0.00 0.76 0.76 96 1011.5
20260901191512 75 282 1.0 1.0 0.00 0.76 0.76 98 1011.6
20260901191008 75 275 0.0 0.0 0.00 0.76 0.76 99 1011.7
20260901190503 74 275 0.0 0.0 0.00 0.76 0.76 99 1011.4
20260901190001 73 275 0.0 0.0 0.00 0.76 0.76 99 1011.6
20260901185455 73 275 0.0 0.0 0.00 0.76 0.76 99 1011.8
20260901184954 73 273 0.0 0.0 0.00 0.76 0.76 99 1011.6
20260901184450 73 76 0.0 0.0 0.00 0.76 0.76 99 1011.5
20260901183945 73 39 0.0 0.0 0.00 0.76 0.76 99 1011.6
20260901183439 74 79 0.0 0.0 0.00 0.76 0.76 99 1011.5
20260901182935 74 127 0.0 0.0 0.00 0.76 0.76 99 1011.7
20260901182431 74 53 0.0 0.0 0.00 0.76 0.76 99 1011.5
20260901181925 74 67 0.0 0.0 0.00 0.76 0.76 99 1011.6
20260901181420 74 53 0.0 0.0 0.00 0.76 0.76 99 1011.6
20260901180919 74 84 0.0 1.0 0.00 0.76 0.76 99 1011.8
20260901180419 74 44 0.0 1.0 0.00 0.76 0.76 99 1011.7
20260901175917 73 322 1.0 2.0 0.00 0.76 0.76 99 1011.6
20260901175412 73 181 1.0 1.0 0.00 0.76 0.76 99 1011.6
20260901174907 73 307 0.0 1.0 0.00 0.76 0.76 99 1011.9
20260901174403 72 76 0.0 0.0 0.00 0.76 0.76 99 1011.8
20260901173858 72 26 0.0 0.0 0.00 0.76 0.76 99 1011.9
20260901173353 72 278 0.0 1.0 0.00 0.76 0.76 99 1011.6
20260901172850 72 347 0.0 0.0 0.00 0.76 0.76 99 1011.6
20260901172349 72 224 0.0 0.0 0.00 0.76 0.76 99 1011.9
20260901171847 71 286 0.0 0.0 0.00 0.76 0.76 99 1012.0
20260901171346 72 355 0.0 0.0 0.00 0.76 0.76 99 1011.8
20260901170845 72 53 0.0 0.0 0.00 0.76 0.76 99 1011.6
20260901170340 72 71 0.0 0.0 0.00 0.76 0.76 99 1011.7
20260901165840 71 181 0.0 0.0 0.00 0.76 0.76 99 1011.7
20260901165334 71 104 0.0 0.0 0.00 0.76 0.76 99 1012.0
20260901164831 71 164 0.0 0.0 0.00 0.76 0.76 99 1011.9
20260901164325 71 269 0.0 1.0 0.00 0.76 0.76 99 1011.8
20260901163820 71 69 0.0 0.0 0.00 0.76 0.76 99 1011.8
20260901163315 71 139 0.0 0.0 0.00 0.76 0.76 99 1011.7
20260901162810 70 66 0.0 0.0 0.00 0.76 0.76 99 1011.9
20260901162309 70 121 0.0 0.0 0.00 0.76 0.76 99 1012.5
20260901161808 70 81 0.0 0.0 0.00 0.76 0.76 99 1012.3
20260901161303 70 268 1.0 1.0 0.00 0.76 0.76 99 1012.5
20260901160758 70 79 0.0 0.0 0.00 0.76 0.76 99 1012.7
20260901160254 70 333 0.0 1.0 0.00 0.76 0.76 99 1013.1
20260901155753 70 95 0.0 0.0 0.00 0.76 0.76 99 1012.9
20260901155248 70 63 0.0 0.0 0.00 0.76 0.76 99 1013.2
20260901154744 70 354 0.0 1.0 0.05 0.76 0.76 99 1013.2
20260901154238 70 226 0.0 0.0 0.12 0.76 0.76 99 1013.0
20260901153733 70 81 0.0 0.0 0.07 0.75 0.75 99 1013.3
20260901153233 70 92 0.0 0.0 0.00 0.74 0.74 99 1013.4
20260901152732 69 82 0.0 0.0 0.05 0.74 0.74 99 1013.1
20260901152231 69 265 0.0 0.0 0.05 0.74 0.74 99 1013.3
20260901151726 70 308 0.0 0.0 0.00 0.73 0.73 99 1013.1
20260901151221 69 264 0.0 0.0 0.07 0.73 0.73 99 1013.1
20260901150720 69 159 0.0 0.0 0.07 0.73 0.73 99 1012.9
20260901150218 69 320 0.0 0.0 0.00 0.72 0.72 99 1013.0
20260901145717 69 340 0.0 1.0 0.00 0.72 0.72 99 1012.8
20260901145211 69 47 0.0 0.0 0.00 0.72 0.72 99 1012.8
20260901144707 69 111 0.0 0.0 0.05 0.72 0.72 99 1012.9
20260901144202 69 185 0.0 0.0 0.05 0.72 0.72 99 1012.8
20260901143657 69 142 0.0 1.0 0.00 0.71 0.71 99 1012.8
20260901143153 69 87 0.0 0.0 0.00 0.71 0.71 99 1013.1
20260901142649 69 133 0.0 0.0 0.00 0.71 0.71 99 1012.8
20260901142148 69 80 0.0 0.0 0.07 0.71 0.71 99 1013.2
20260901141643 69 63 0.0 0.0 0.14 0.71 0.71 99 1013.0
20260901141143 69 64 0.0 0.0 0.07 0.70 0.70 99 1013.1
20260901140642 69 79 0.0 0.0 0.00 0.69 0.69 99 1013.2
20260901140141 69 26 0.0 0.0 0.00 0.69 0.69 99 1013.5
20260901135636 69 65 0.0 0.0 0.00 0.69 0.69 99 1013.3
20260901135131 69 59 0.0 0.0 0.05 0.69 0.69 99 1013.2
20260901134627 69 49 0.0 0.0 0.12 0.69 0.69 99 1013.2
20260901134122 69 129 0.0 0.0 0.12 0.68 0.68 99 1013.3
20260901133621 69 29 0.0 0.0 0.05 0.67 0.67 99 1013.1
20260901133119 69 93 0.0 0.0 0.00 0.66 0.66 99 1012.8
20260901132614 69 81 0.0 0.0 0.12 0.66 0.66 99 1013.1
20260901132114 68 72 0.0 0.0 0.19 0.66 0.66 99 1013.2
20260901131614 68 72 0.0 0.0 0.07 0.64 0.64 99 1013.5
20260901131108 68 50 0.0 0.0 0.00 0.63 0.63 99 1013.6
20260901130603 68 67 0.0 0.0 0.00 0.63 0.63 99 1013.5
20260901125600 68 69 0.0 0.0 0.00 0.63 0.63 99 1013.4
20260901125055 68 71 0.0 0.0 0.00 0.63 0.63 99 1013.3
20260901124550 68 56 0.0 0.0 0.00 0.63 0.63 99 1013.2
20260901124045 68 56 0.0 0.0 0.00 0.63 0.63 99 1013.1
20260901123540 69 67 0.0 0.0 0.00 0.63 0.63 99 1013.2
20260901123039 69 70 0.0 0.0 0.00 0.63 0.63 99 1013.1
20260901122538 68 63 0.0 0.0 0.00 0.63 0.63 99 1013.1
20260901122037 68 98 0.0 0.0 0.00 0.63 0.63 99 1013.0
20260901121532 68 66 0.0 0.0 0.00 0.63 0.63 99 1013.2
20260901121022 68 45 0.0 0.0 0.00 0.63 0.63 99 1013.3
20260901120522 68 114 0.0 0.0 0.00 0.63 0.63 99 1013.2
20260901120017 68 43 0.0 0.0 0.00 0.63 0.63 99 1013.1
20260901115512 68 93 0.0 0.0 0.00 0.63 0.63 99 1013.2
20260901115009 68 94 0.0 0.0 0.00 0.63 0.63 99 1013.1
20260901114505 68 64 0.0 0.0 0.00 0.63 0.63 99 1013.1
20260901114003 68 116 0.0 0.0 0.00 0.63 0.63 99 1013.1
20260901113502 68 56 0.0 0.0 0.00 0.63 0.63 99 1013.5
20260901112957 68 15 0.0 0.0 0.00 0.63 0.63 99 1013.7
20260901112452 68 76 0.0 0.0 0.05 0.63 0.63 99 1013.0
20260901111947 68 60 0.0 0.0 0.05 0.63 0.63 99 1013.2
20260901111446 68 42 0.0 0.0 0.00 0.62 0.62 99 1013.3
20260901110944 68 91 0.0 1.0 0.00 0.62 0.62 99 1013.0
20260901110440 67 79 0.0 0.0 0.00 0.62 0.62 99 1013.2
20260901105936 67 96 0.0 0.0 0.00 0.62 0.62 99 1013.1
20260901105432 67 102 0.0 0.0 0.00 0.62 0.62 99 1013.3
20260901104927 67 322 0.0 1.0 0.00 0.62 0.62 99 1013.6
20260901104422 67 90 0.0 0.0 0.00 0.62 0.62 99 1013.3
20260901103918 67 137 0.0 0.0 0.00 0.62 0.62 99 1013.4
20260901103418 67 111 0.0 0.0 0.00 0.62 0.62 99 1013.3
20260901102913 67 125 0.0 0.0 0.00 0.62 0.62 99 1013.3
20260901102407 67 96 0.0 0.0 0.00 0.62 0.62 99 1013.5
20260901101902 67 171 0.0 1.0 0.00 0.62 0.62 99 1013.4
20260901101357 67 47 0.0 0.0 0.00 0.62 0.62 99 1013.3
20260901100856 67 0 0.0 0.0 0.00 0.62 0.62 99 1013.1
20260901100351 67 39 0.0 0.0 0.00 0.62 0.62 99 1013.1
20260901095850 67 339 0.0 1.0 0.00 0.62 0.62 99 1013.2
20260901095348 67 12 0.0 0.0 0.00 0.62 0.62 99 1013.2
20260901094842 67 36 0.0 0.0 0.00 0.62 0.62 99 1013.0
20260901094337 67 105 0.0 0.0 0.00 0.62 0.62 99 1013.2
20260901093832 67 64 0.0 0.0 0.00 0.62 0.62 99 1013.2
20260901093331 67 85 0.0 0.0 0.00 0.62 0.62 99 1013.3
20260901092827 67 67 0.0 0.0 0.00 0.62 0.62 99 1013.3
20260901092323 67 61 0.0 0.0 0.00 0.62 0.62 99 1013.3
20260901091819 67 64 0.0 0.0 0.00 0.62 0.62 99 1013.5
20260901091318 67 69 0.0 0.0 0.00 0.62 0.62 99 1013.2
20260901090814 67 37 0.0 0.0 0.00 0.62 0.62 99 1013.2
20260901090308 67 62 0.0 0.0 0.00 0.62 0.62 99 1013.3
20260901085804 67 93 0.0 0.0 0.00 0.62 0.62 99 1013.2
20260901085259 67 68 0.0 0.0 0.00 0.62 0.62 99 1013.3
20260901084756 67 47 0.0 0.0 0.00 0.62 0.62 99 1013.6
20260901084252 67 24 0.0 0.0 0.00 0.62 0.62 99 1013.4
20260901083752 67 63 0.0 0.0 0.00 0.62 0.62 99 1013.6
20260901083252 67 339 0.0 0.0 0.00 0.62 0.62 99 1013.6
20260901082750 67 48 0.0 0.0 0.07 0.62 0.62 99 1013.4
20260901082245 67 203 0.0 0.0 0.07 0.62 0.62 99 1013.7
20260901081741 67 206 0.0 0.0 0.05 0.61 0.61 99 1013.6
20260901081240 67 172 0.0 0.0 0.05 0.61 0.61 99 1013.8
20260901080736 67 172 1.0 1.0 0.00 0.60 0.60 99 1013.8
20260901080234 67 339 0.0 1.0 0.00 0.60 0.60 99 1013.9
20260901075729 67 75 0.0 0.0 0.00 0.60 0.60 99 1013.8
20260901075224 67 54 0.0 0.0 0.00 0.60 0.60 99 1014.1
20260901074718 67 65 0.0 0.0 0.00 0.60 0.60 99 1013.9
20260901074214 67 79 0.0 0.0 0.00 0.60 0.60 99 1014.2
20260901073710 67 359 0.0 0.0 0.00 0.60 0.60 99 1013.9